Temperature
19 19 18 18 18 18 17 17 17 17 17 16 16 16 16 16 16 16 16 16 16 16 16 16 16 16 16 16 15 15 15 15 15 15 15 14 14 14 14 14 14 14 14
19 19 18 18 18 18 18 18 17 17 17 17 17 16 16 16 16 16 16 16 16 16 16 16 16 16 16 15 15 15 15 15 15 15 15 14 14 14 14 14 14 14 14
19 19 19 18 18 18 18 18 18 17 17 17 17 16 16 16 16 16 16 16 16 16 15 15 15 15 15 15 15 15 15 15 15 15 15 14 14 14 14 14 14 13 13
19 19 19 19 19 18 18 18 18 17 17 17 17 17 17 16 16 16 16 16 16 16 15 15 15 15 15 15 15 15 15 15 15 15 15 14 14 14 14 14 13 13 13
20 20 20 19 19 19 18 18 18 18 17 17 17 17 17 17 16 16 16 16 16 15 15 15 15 15 15 15 15 15 15 15 15 15 15 14 14 14 14 14 13 13 13
20 20 20 20 19 19 19 18 18 18 17 17 17 17 17 17 16 16 16 16 16 15 15 15 15 15 15 15 15 15 15 15 14 14 14 14 14 14 14 13 13 13 13
20 20 20 19 19 19 19 19 18 18 18 17 17 17 17 17 17 17 16 16 16 16 16 15 15 15 15 15 15 15 15 14 14 14 14 14 14 14 13 13 13 13 13
20 20 20 20 19 19 19 19 19 18 18 18 18 17 17 17 17 17 16 16 16 16 16 15 15 15 15 15 15 15 14 14 14 14 14 14 14 13 13 13 13 13 13
20 20 20 20 20 20 19 19 19 19 18 18 18 17 17 17 17 17 16 16 16 16 16 15 15 15 15 15 15 14 14 14 14 14 14 14 13 13 13 13 13 12 12
20 20 20 20 20 20 20 19 19 19 18 18 18 18 17 17 17 17 17 16 16 16 16 15 15 15 15 15 15 14 14 14 14 14 14 13 13 13 13 13 13 12 12
20 20 20 20 20 20 20 19 19 19 18 18 18 18 17 17 17 17 17 16 16 16 16 16 15 15 15 15 14 14 14 14 14 13 13 13 13 13 13 13 13 12 12
20 20 20 20 20 20 19 19 19 19 18 18 18 18 17 17 17 17 17 16 16 16 16 16 15 15 15 15 14 14 14 14 14 13 13 13 13 13 13 12 12 12 12
19 19 19 19 19 19 19 19 19 19 18 18 18 18 17 17 17 17 17 16 16 16 16 16 15 15 15 14 14 14 14 14 13 13 13 13 13 13 12 12 12 12 12
19 19 19 19 19 19 19 19 19 18 18 18 18 18 17 17 17 17 16 16 16 16 16 15 15 15 15 14 14 14 14 13 13 13 13 13 13 12 12 12 12 12 12
19 19 19 19 19 19 19 19 19 18 18 18 18 18 17 17 17 16 16 16 16 16 15 15 15 15 14 14 14 14 14 13 13 13 13 13 12 12 12 12 12 12 11
19 19 19 19 19 19 19 19 19 19 18 18 18 18 17 17 17 16 16 16 16 15 15 15 15 15 15 14 14 14 13 13 13 13 13 13 12 12 12 12 12 11 11
19 20 20 20 20 20 19 19 19 18 18 18 18 18 17 17 17 16 16 16 15 15 15 15 15 15 14 14 14 13 13 13 13 13 12 12 12 12 12 12 11 11 11
19 20 20 20 20 19 19 19 19 18 18 18 18 17 17 17 16 16 16 16 15 15 15 15 14 14 14 14 13 13 13 13 13 12 12 12 12 12 11 11 11 11 11
19 20 20 20 19 19 19 19 18 18 18 18 17 17 17 16 16 16 16 15 15 15 14 14 14 14 14 13 13 13 13 12 12 12 12 11 11 11 11 11 11 11 11
19 19 19 19 19 19 18 18 18 18 18 17 17 17 16 16 16 16 15 15 15 14 14 14 14 13 13 13 13 12 12 12 12 12 11 11 11 11 10 10 10 10 10
19 19 19 18 18 18 18 18 18 18 18 17 17 17 16 16 16 15 15 15 14 14 14 13 13 13 13 13 12 12 12 12 11 11 11 11 10 10 10 10 10 10 9
18 18 18 18 18 18 18 18 18 17 17 17 17 16 16 16 15 15 15 14 14 13 13 13 13 13 13 12 12 12 11 11 11 11 11 10 10 10 10 9 9 9 9
18 18 18 17 17 17 17 17 17 17 17 16 16 16 15 15 15 15 14 14 13 13 13 13 12 12 12 12 12 11 11 11 10 10 10 10 10 9 9 9 9 9 8
17 17 17 17 17 17 16 17 16 16 16 16 16 15 15 15 14 14 14 13 13 13 12 12 12 12 12 11 11 11 11 10 10 10 10 9 9 9 9 9 8 8 8
17 17 17 17 16 16 16 16 16 16 16 15 15 15 14 14 14 13 13 13 12 12 12 11 11 11 11 11 11 10 10 10 10 9 9 9 9 9 8 8 8 7 7
16 16 16 16 16 16 16 16 15 15 15 15 14 14 14 13 13 13 12 12 12 11 11 11 11 10 10 10 10 10 9 9 9 9 9 8 8 8 8 7 7 7 6
Wind_Speed
6 4 5 5 5 5 6 6 6 5 5 3 3 3 2 1 2 3 5 5 6 6 6 5 5 5 4 4 4 4 5 4 3 3 4 4 5 6 5 6 6 7 9
5 5 6 7 7 7 7 6 6 6 5 3 3 2 2 1 1 2 4 5 5 5 5 5 4 4 4 5 4 3 3 3 3 3 3 3 4 4 5 4 5 5 7
9 8 8 8 8 8 9 8 7 7 6 5 4 4 3 3 2 2 2 3 4 4 5 5 5 4 3 3 3 3 4 2 3 3 3 3 1 2 3 4 4 5 4
8 8 9 9 10 9 7 7 7 7 6 6 5 5 3 2 2 1 0 2 3 3 4 5 5 4 3 3 2 2 2 3 2 2 3 2 3 2 1 3 4 4 4
9 9 10 11 10 8 7 7 7 6 6 6 6 5 3 2 1 1 1 2 2 3 3 4 4 4 3 3 3 3 3 2 2 2 1 3 3 2 2 1 4 4 3
8 8 7 7 7 6 6 6 7 6 6 7 6 6 6 4 3 2 1 0 1 1 2 3 3 3 3 3 3 3 3 3 3 2 2 2 2 1 2 1 1 2 3
7 7 8 8 8 8 8 7 8 7 7 7 7 7 7 6 6 4 3 2 1 0 0 2 2 2 2 3 3 3 2 2 2 2 1 1 1 2 3 2 1 1 3
8 8 9 9 9 9 9 8 9 8 7 8 7 6 6 5 4 5 4 4 3 2 2 2 2 2 3 3 3 3 2 2 2 2 2 1 1 1 2 3 2 1 2
8 8 7 8 8 9 9 10 10 8 7 7 6 6 6 5 5 5 4 3 3 2 3 3 3 2 3 3 3 2 2 2 2 1 2 1 1 1 1 2 3 3 0
6 6 6 7 7 8 7 7 8 8 6 6 6 5 5 5 5 4 4 4 4 3 3 3 3 3 3 3 3 2 2 2 1 1 2 1 0 1 1 1 1 2 3
7 7 6 6 5 5 6 6 6 6 5 6 5 5 4 4 4 4 4 4 4 4 4 4 3 3 2 3 3 2 2 2 1 1 2 1 1 1 1 1 1 1 2
6 6 5 5 5 5 6 6 6 6 6 6 6 5 4 4 4 4 4 4 4 4 4 4 4 3 3 3 3 3 3 3 2 1 1 0 1 1 1 1 1 1 2
6 5 4 5 5 6 6 6 7 7 6 6 6 5 5 5 5 4 4 4 4 3 3 3 4 3 3 3 3 3 3 3 2 2 2 1 1 0 0 1 0 0 1
6 6 5 5 6 6 6 7 6 6 6 6 6 6 6 6 5 4 4 4 4 4 3 3 3 3 3 3 3 3 3 2 1 1 1 1 2 2 2 1 1 1 1
5 6 6 6 5 5 5 6 6 6 6 6 6 6 5 4 4 4 4 4 4 4 3 3 2 2 3 3 4 4 4 3 2 1 1 1 2 2 2 1 2 2 1
5 6 6 6 6 6 6 6 6 6 6 7 6 5 5 5 4 4 4 4 3 3 3 3 3 3 2 4 6 5 4 3 3 2 1 1 1 2 2 2 2 2 2
4 5 6 7 7 7 7 7 6 6 6 6 6 5 6 5 5 5 5 5 4 4 3 3 3 3 3 4 6 6 4 4 3 3 1 1 1 1 1 1 1 1 2
4 5 5 5 5 4 4 5 5 6 6 5 5 5 6 5 5 5 5 4 4 4 4 3 3 3 3 5 5 6 4 3 2 2 2 2 2 1 1 1 1 1 2
4 4 5 5 5 5 5 5 5 5 5 5 5 5 6 6 5 5 5 4 4 4 3 3 3 3 3 4 5 6 3 2 2 2 2 2 2 3 1 2 1 2 3
2 3 3 3 4 3 5 6 5 5 5 6 6 6 6 7 6 6 5 3 4 4 3 3 2 3 3 3 5 6 4 3 2 1 2 3 3 3 2 2 2 2 4
3 3 4 4 3 3 5 5 5 5 6 5 5 5 6 6 6 5 4 4 4 3 3 2 1 2 3 3 4 6 4 4 3 2 2 2 3 3 2 2 3 5 3
3 3 4 3 2 4 5 4 4 4 3 5 5 5 4 5 5 5 4 4 4 4 2 2 0 1 2 2 3 5 5 4 3 3 2 2 2 2 2 2 3 4 2
3 3 4 3 2 3 4 4 3 2 4 5 5 4 4 3 4 5 5 3 3 3 2 2 1 1 1 1 2 3 4 4 3 3 3 2 1 1 1 2 2 1 0
3 3 5 4 2 2 2 3 3 3 5 5 4 4 4 3 3 3 4 4 4 3 3 2 2 1 1 1 1 1 2 2 2 1 1 0 1 0 1 2 2 0 1
2 3 4 4 3 2 2 2 3 5 5 4 4 4 4 4 3 3 2 3 3 4 4 4 3 3 2 3 3 3 2 2 2 2 1 1 1 1 1 1 1 1 1
3 4 4 4 3 3 2 2 2 5 6 4 4 3 3 3 3 3 2 2 1 2 3 3 3 2 2 2 3 3 2 3 3 2 1 1 1 1 1 1 2 1 1
Wind_Direction
227 203 185 172 164 162 158 156 151 153 143 126 116 104 82 47 36 36 52 70 85 94 93 88 76 75 81 81 85 89 71 51 38 68 45 27 36 44 35 34 38 34 32
206 193 184 179 180 178 176 171 169 167 167 153 138 132 127 101 75 38 46 57 76 89 97 96 88 83 87 78 74 86 89 49 34 89 85 28 3 10 22 21 30 23 27
205 197 187 189 186 187 187 185 182 175 172 152 116 94 72 53 40 26 18 25 61 80 92 101 101 89 88 93 83 88 105 101 40 54 118 125 209 324 347 10 17 13 18
205 195 188 191 197 199 190 186 183 178 170 156 151 149 150 162 198 182 65 34 55 78 96 105 105 99 91 94 87 88 99 117 96 53 55 100 145 137 346 339 350 5 17
204 197 196 198 200 195 187 186 178 178 172 167 166 157 154 163 146 111 92 53 39 54 92 110 110 104 97 101 92 86 85 97 120 121 104 82 68 85 131 310 329 345 345
203 199 197 192 192 187 184 178 177 185 178 176 173 173 171 167 154 154 152 83 28 28 76 115 116 116 110 107 105 99 96 94 98 103 117 135 130 139 131 162 297 316 315
193 189 186 187 188 188 189 185 183 190 185 183 186 188 185 179 184 187 185 185 201 226 201 127 130 126 128 121 114 101 97 106 110 118 122 136 148 151 146 142 176 322 315
191 190 193 191 193 194 191 187 190 194 188 189 195 191 187 186 193 190 186 193 201 207 179 143 140 139 136 126 118 102 101 103 109 107 113 107 109 144 153 155 145 50 342
192 190 190 191 194 195 194 190 190 193 192 192 187 189 189 189 191 187 184 188 198 190 164 144 140 132 132 131 123 112 111 107 103 111 111 103 82 120 148 153 154 148 161
192 188 189 192 195 196 190 182 183 189 187 183 184 187 187 189 181 169 178 185 186 168 155 147 142 141 131 125 123 116 110 107 89 104 100 85 83 89 95 135 144 149 162
188 186 188 189 185 177 170 172 178 179 175 177 175 171 177 173 164 173 185 182 174 165 168 163 157 159 149 140 136 136 127 117 89 70 95 68 80 90 82 108 118 131 145
184 178 174 166 165 171 172 176 178 178 181 174 166 170 166 159 165 183 185 172 169 167 168 159 161 169 164 154 158 162 151 149 143 139 108 49 90 76 76 107 130 158 171
167 162 161 172 180 182 182 182 183 185 178 164 162 164 166 169 179 186 178 170 166 161 156 158 170 174 169 168 172 167 165 169 172 177 174 205 146 191 219 148 145 178 127
170 171 178 186 188 187 186 186 189 183 173 164 165 175 183 184 185 179 170 169 164 156 164 174 178 178 173 171 172 163 159 163 164 182 197 208 201 214 212 194 198 153 103
176 181 186 188 186 187 188 187 186 179 173 167 177 192 188 175 169 168 168 163 160 167 169 162 170 174 168 177 167 166 167 165 164 202 238 224 222 230 213 205 195 163 151
184 186 188 187 191 192 193 189 186 183 172 177 192 187 168 166 173 173 164 157 162 162 154 163 169 170 189 183 174 168 168 169 171 196 249 267 272 273 261 241 204 178 180
192 190 195 197 201 200 193 192 188 172 171 182 185 176 171 174 180 171 160 168 174 166 165 178 174 184 205 187 178 175 165 169 182 196 214 266 298 285 265 309 307 279 265
198 197 199 200 198 187 178 174 159 161 172 179 180 176 171 172 166 160 169 179 170 170 176 183 190 195 216 198 182 171 156 157 181 195 199 212 263 255 204 160 12 311 302
201 196 190 183 175 173 166 150 150 158 168 180 183 178 170 165 163 170 181 177 166 174 180 183 186 197 229 201 183 162 153 163 203 215 207 203 231 255 218 147 214 301 310
160 152 141 133 141 158 149 146 156 162 187 195 187 174 167 167 175 182 177 164 165 180 172 172 187 199 219 203 187 170 161 176 213 237 247 238 235 255 233 183 192 255 281
132 124 123 128 145 146 139 150 159 188 203 186 163 160 165 170 172 164 157 150 155 150 152 165 195 215 225 216 195 180 177 190 199 215 243 248 240 246 244 214 206 239 256
104 117 126 129 122 129 136 148 183 206 171 151 147 153 159 162 155 146 143 140 148 148 152 152 190 266 254 222 207 199 196 186 183 213 231 238 235 251 268 249 236 253 274
126 125 133 127 106 124 140 154 193 165 142 136 142 145 141 144 144 144 145 138 145 151 164 169 205 263 275 258 228 212 207 198 196 214 216 221 241 272 297 290 276 287 196
132 128 126 124 117 114 131 157 161 146 134 135 136 133 134 133 131 134 143 148 159 168 175 187 212 240 269 258 229 206 195 197 211 226 209 65 5 28 334 341 339 340 197
127 130 138 142 145 130 111 117 132 130 128 129 128 126 130 134 127 125 141 163 184 184 184 199 196 192 226 238 203 175 185 189 189 151 94 64 35 19 351 341 331 331 338
134 132 133 134 138 131 119 109 125 132 132 127 128 133 134 133 135 129 90 62 121 145 163 162 161 213 219 179 163 169 169 168 155 123 134 208 232 243 259 278 304 311 291
Height
1545 1548 1550 1552 1554 1556 1557 1559 1560 1561 1562 1563 1563 1564 1564 1565 1565 1565 1565 1565 1565 1565 1565 1565 1565 1565 1565 1564 1564 1564 1565 1565 1565 1565 1565 1566 1565 1565 1565 1564 1563 1562 1561
1544 1546 1548 1551 1553 1555 1557 1559 1560 1561 1562 1563 1564 1564 1565 1565 1566 1566 1566 1566 1566 1566 1566 1566 1566 1566 1566 1566 1565 1566 1565 1566 1566 1566 1566 1566 1568 1566 1565 1565 1564 1563 1562
1541 1544 1546 1549 1552 1554 1556 1558 1559 1561 1562 1563 1564 1565 1565 1566 1566 1567 1567 1567 1566 1566 1567 1566 1566 1566 1567 1567 1566 1566 1566 1566 1567 1567 1567 1567 1566 1566 1566 1565 1564 1563 1562
1539 1541 1544 1547 1549 1552 1554 1557 1559 1560 1562 1563 1564 1565 1565 1566 1566 1567 1567 1567 1567 1567 1567 1567 1567 1567 1567 1567 1567 1567 1567 1567 1567 1567 1567 1567 1567 1566 1566 1566 1565 1564 1562
1536 1538 1541 1544 1547 1550 1553 1555 1558 1560 1561 1562 1564 1565 1565 1566 1567 1567 1567 1567 1567 1567 1567 1567 1567 1567 1567 1567 1567 1567 1567 1567 1567 1567 1567 1567 1566 1566 1566 1565 1565 1564 1563
1533 1536 1539 1542 1545 1548 1551 1554 1556 1558 1560 1561 1563 1564 1565 1566 1566 1566 1567 1567 1567 1567 1567 1567 1567 1567 1567 1567 1567 1567 1567 1567 1567 1567 1566 1566 1566 1566 1565 1565 1564 1563 1563
1530 1533 1536 1540 1543 1546 1549 1552 1554 1556 1558 1560 1562 1563 1564 1565 1565 1566 1566 1566 1567 1567 1567 1567 1567 1567 1567 1567 1567 1567 1567 1567 1567 1566 1566 1566 1566 1565 1565 1564 1563 1562 1562
1527 1531 1534 1537 1540 1543 1546 1549 1552 1554 1556 1558 1560 1562 1563 1564 1564 1565 1565 1566 1566 1566 1566 1566 1566 1567 1567 1567 1567 1567 1567 1566 1566 1566 1566 1565 1565 1565 1564 1564 1563 1562 1561
1524 1528 1532 1535 1538 1541 1544 1547 1549 1552 1554 1556 1558 1560 1561 1562 1563 1564 1564 1565 1565 1565 1566 1566 1566 1566 1566 1566 1566 1566 1566 1566 1566 1565 1565 1565 1564 1564 1564 1563 1563 1562 1560
1522 1526 1530 1533 1536 1539 1542 1545 1547 1550 1552 1554 1556 1558 1559 1561 1562 1562 1563 1563 1564 1565 1565 1565 1565 1566 1566 1566 1566 1566 1566 1565 1565 1565 1564 1564 1564 1563 1563 1562 1562 1561 1561
1520 1524 1527 1531 1534 1537 1540 1542 1545 1548 1550 1552 1554 1556 1557 1559 1560 1561 1561 1562 1563 1563 1564 1564 1564 1565 1565 1565 1565 1565 1565 1565 1564 1564 1564 1563 1563 1563 1562 1562 1561 1560 1560
1519 1522 1526 1529 1532 1535 1538 1540 1543 1545 1548 1550 1552 1554 1555 1557 1558 1559 1560 1561 1561 1562 1562 1562 1563 1563 1564 1564 1564 1564 1564 1564 1563 1563 1563 1562 1562 1562 1561 1561 1560 1559 1558
1518 1521 1524 1528 1530 1533 1536 1538 1541 1543 1546 1548 1550 1552 1553 1554 1556 1557 1558 1559 1560 1560 1561 1561 1561 1562 1562 1562 1563 1563 1563 1563 1562 1562 1562 1561 1561 1560 1560 1559 1559 1558 1557
1516 1519 1522 1526 1529 1531 1534 1536 1539 1541 1544 1546 1548 1549 1551 1552 1554 1555 1556 1557 1558 1558 1559 1559 1560 1560 1560 1561 1561 1561 1561 1561 1561 1561 1560 1560 1560 1559 1559 1558 1557 1556 1556
1515 1518 1520 1523 1527 1529 1532 1534 1537 1540 1542 1544 1546 1547 1549 1550 1552 1553 1554 1555 1555 1556 1557 1557 1557 1558 1558 1559 1559 1559 1559 1559 1559 1559 1559 1558 1558 1557 1557 1556 1555 1555 1554
1514 1516 1519 1522 1525 1527 1530 1532 1535 1537 1539 1541 1543 1545 1546 1548 1549 1550 1551 1552 1553 1554 1554 1555 1555 1556 1556 1556 1557 1557 1557 1557 1557 1557 1556 1556 1556 1555 1555 1554 1553 1553 1552
1513 1515 1518 1520 1523 1525 1528 1530 1532 1534 1537 1539 1540 1542 1543 1545 1546 1547 1548 1549 1550 1551 1551 1552 1552 1553 1553 1554 1554 1554 1555 1555 1554 1554 1554 1554 1553 1553 1552 1552 1551 1550 1550
1512 1514 1516 1519 1521 1524 1526 1528 1530 1532 1534 1536 1537 1539 1540 1542 1543 1544 1545 1546 1547 1548 1548 1549 1550 1550 1551 1551 1551 1552 1552 1552 1552 1552 1551 1551 1551 1550 1550 1549 1548 1548 1547
1511 1513 1515 1517 1519 1522 1524 1526 1528 1529 1531 1533 1534 1536 1537 1539 1540 1541 1542 1543 1544 1545 1545 1546 1547 1547 1548 1548 1549 1549 1549 1549 1549 1549 1549 1548 1548 1548 1547 1546 1545 1544 1544
1511 1513 1514 1516 1518 1520 1522 1524 1525 1527 1528 1530 1531 1533 1535 1536 1537 1538 1539 1540 1541 1542 1542 1543 1543 1544 1545 1545 1545 1546 1546 1546 1546 1546 1546 1545 1545 1544 1544 1543 1542 1541 1540
1510 1511 1513 1515 1516 1518 1520 1521 1523 1525 1526 1528 1529 1530 1532 1533 1534 1535 1536 1537 1538 1539 1539 1540 1540 1541 1541 1542 1542 1542 1542 1542 1542 1542 1542 1542 1542 1541 1540 1540 1539 1538 1537
1508 1510 1511 1513 1515 1517 1518 1519 1521 1522 1524 1525 1526 1527 1529 1530 1531 1532 1533 1534 1535 1535 1536 1536 1537 1537 1538 1538 1539 1539 1539 1539 1539 1538 1539 1538 1538 1538 1537 1536 1535 1534 1533
1507 1509 1510 1512 1514 1515 1517 1518 1519 1520 1522 1522 1524 1525 1526 1527 1528 1529 1530 1531 1531 1532 1532 1533 1533 1534 1535 1535 1535 1536 1536 1536 1535 1535 1535 1535 1535 1534 1533 1533 1532 1530 1529
1506 1508 1509 1511 1512 1514 1516 1517 1518 1519 1520 1520 1521 1522 1523 1524 1525 1526 1527 1527 1528 1529 1529 1530 1530 1531 1531 1531 1532 1532 1532 1532 1532 1532 1531 1531 1531 1530 1529 1528 1527 1526 1525
1505 1507 1508 1510 1512 1513 1514 1515 1516 1517 1518 1518 1519 1520 1521 1522 1522 1523 1524 1525 1526 1526 1527 1527 1528 1528 1527 1528 1529 1528 1528 1528 1528 1527 1527 1527 1526 1526 1525 1524 1523 1522 1521
1505 1506 1508 1509 1511 1512 1513 1514 1515 1515 1516 1516 1517 1518 1519 1520 1520 1521 1522 1523 1524 1524 1525 1525 1525 1525 1525 1525 1525 1525 1525 1525 1524 1524 1523 1522 1522 1521 1520 1519 1518 1517 1516